[[{"header":{"parameterUnit":"m.s-1","parameterCategory":1,"la1":30.2991,"la2":30.254,"lo1":-89.0895,"lo2":-89.0444,"dy":0.0017,"dx":0.0017,"nx":28,"ny":28,"refTime":"2024-06-09T03:00:00:Z","depth":0,"parameterNumber":2,"parameterNumberName":"U-component_of_WINDS"},"data":[0,0,0,0,0,0,0,0,0,0,0,0,0,0,0,0,0,0,0,0,0,0,0,0,0,0,0,0,0,0,0,0,0,0,0,0,0,0,0,0,0,0,0,0,0,0,0,0,0,0,0,0,0,0,0,0,0,0,2.696,2.6961,0,2.7061,2.7063,2.7064,2.7022,2.7019,2.7017,2.7015,2.7123,2.7128,2.7133,0,0,0,0,0,0,0,0,0,0,0,0,0,2.6736,2.674,2.696,2.6961,2.6962,2.7061,2.7063,2.7064,2.7022,2.7019,2.7016,2.7013,2.7122,2.7128,2.7134,0,0,0,0,0,0,0,0,0,0,0,0,0,2.6835,2.6742,2.696,2.6953,2.6954,2.7061,2.7063,2.7064,2.7023,2.7019,2.7015,2.7012,2.712,2.7127,2.7135,2.7256,0,0,2.7158,2.7162,0,0,0,0,0,0,0,0,2.683,2.6843,2.6953,2.6954,2.6955,2.7025,2.7024,2.7129,2.7024,2.6997,2.7015,2.701,2.7094,2.7104,2.7131,2.7261,2.7265,2.7159,2.7164,2.7167,2.7169,0,0,0,0,0,0,0,2.6823,2.6839,2.7,2.6955,2.6956,2.6948,2.6958,2.7043,2.7065,2.6999,2.6996,2.7008,2.7094,2.7123,2.7133,2.7267,2.7159,2.7166,2.7171,2.7174,2.7504,2.7508,0,0,0,0,0,0,2.6815,2.6833,2.6997,2.7003,2.6882,2.6955,2.6966,2.7006,2.7064,2.7069,2.7011,2.7006,2.7112,2.7124,2.7137,2.7283,2.7167,2.7174,2.7179,2.75,2.7505,2.751,0,0,0,0,0,0,2.681,2.683,2.6993,2.6918,2.6938,2.6962,2.7008,2.701,2.704,2.7073,2.7077,2.7037,2.711,2.7126,2.7227,2.7286,2.7178,2.7185,2.7495,2.7502,2.7508,2.7576,0,0,0,0,0,0,2.6804,2.6829,2.6873,2.6919,2.6942,2.7079,2.7012,2.7015,2.7053,2.7047,2.7098,2.7104,2.7108,2.7215,2.7234,2.7295,2.7191,2.749,2.7498,2.7506,2.7568,2.7583,2.7596,0,0,0,0,0,2.6796,2.6888,2.6875,2.6895,2.6997,2.7082,2.7096,2.7097,2.7057,2.7103,2.7126,2.7102,2.7277,2.7226,2.7247,2.7311,2.7486,2.7496,2.7505,2.7562,2.758,2.7596,0,0,0,0,0,0,2.6849,2.6894,2.688,2.6989,2.7032,2.7075,2.7133,2.7117,2.7173,2.7165,2.7167,2.7179,2.7283,2.7308,2.725,2.7432,2.7376,2.739,2.7412,2.743,2.7444,2.7435,2.7197,0,0,0,0,0,2.6874,2.6937,2.6974,2.7067,2.7089,2.7108,2.7145,2.7143,2.7188,2.7206,2.7235,2.7282,2.7347,2.739,2.7452,2.7573,2.7584,2.7627,2.7641,2.7653,2.7664,2.7731,2.7751,2.754,2.754,2.754,0,0,2.6924,2.6957,2.6997,2.7079,2.7111,2.7179,2.7123,2.7197,2.7248,2.7218,2.7314,2.7338,2.739,2.7502,2.7552,2.7525,2.7726,2.7664,2.7673,2.7679,2.7743,2.7763,2.7781,2.7547,2.7546,2.7545,0,0,2.7051,2.7082,2.7163,2.7198,2.7249,2.7261,2.7281,2.7328,2.7342,2.7439,2.7418,2.7481,2.7593,2.7631,2.7666,2.7812,2.7793,2.7833,2.7905,2.7971,2.7988,2.8002,2.8055,2.8073,2.7844,2.7845,2.7845,0,2.7108,2.7207,2.7208,2.7284,2.7321,2.7297,2.7381,2.7416,2.7485,2.7512,2.7481,2.7623,2.7656,2.7777,2.7813,2.7842,2.7866,2.7825,2.7985,2.8,2.8013,2.8064,2.8083,2.7849,2.7848,2.7848,2.7848,0,2.7276,2.7346,2.7406,2.7472,2.7517,2.7597,2.7611,2.7657,2.7653,2.7669,2.777,2.781,2.788,2.7909,2.7906,2.8031,2.8012,2.7983,2.7926,2.8038,2.8085,2.8104,2.7855,2.7854,2.7852,2.7851,0,0,2.7435,2.7503,2.7525,2.7556,2.7612,2.7667,2.7748,2.7816,2.7855,2.7906,2.7974,2.8071,2.8045,2.8085,2.8086,2.8144,2.8258,2.8108,2.8109,2.8134,2.8399,2.842,2.8442,2.8247,2.825,2.8253,2.8395,0,2.7566,2.7704,2.7709,2.7836,2.7902,2.7883,2.7953,2.7997,2.8015,2.8076,2.8097,2.8166,2.8127,2.815,2.8207,2.8232,2.8311,2.8222,2.8311,2.8314,2.8297,2.8466,2.8488,2.8619,2.8413,2.8416,2.8419,0,2.7735,2.779,2.7924,2.7973,2.8001,2.8064,2.8128,2.8186,2.8236,2.8246,2.8292,2.8285,2.837,2.8312,2.843,2.837,2.8407,2.8426,2.8431,2.8438,2.8372,2.8477,2.8661,2.868,2.8448,2.8445,2.8443,0,2.7838,2.7946,2.804,2.8067,2.8127,2.8172,2.82,2.8246,2.8288,2.8345,2.8373,2.844,2.8476,2.853,2.8543,2.8499,2.8661,2.8604,2.8673,2.8673,2.8706,2.8703,2.8897,2.8732,2.8732,2.8732,2.8731,0,2.7982,2.8065,2.8087,2.8145,2.8238,2.8245,2.8337,2.8362,2.8405,2.8469,2.8458,2.8518,2.8532,2.8597,2.8608,2.8705,2.8722,2.8733,2.8735,2.8733,2.8732,2.8756,2.8747,2.8737,2.8736,2.8735,2.8734,0,2.8111,2.8129,2.823,2.828,2.8295,2.8361,2.8404,2.8461,2.848,2.8561,2.8581,2.8611,2.8687,2.8706,2.8796,2.8804,2.8918,2.8912,2.89,2.8899,2.8967,2.896,2.9182,2.9211,2.9029,2.9031,2.9032,0,2.8201,2.8264,2.8321,2.8362,2.8391,2.8459,2.8501,2.8512,2.8558,2.8622,2.8672,2.8746,2.8805,2.8928,2.8959,2.9029,2.9024,2.9097,2.9034,2.9031,2.9024,2.9019,2.9026,2.9108,2.911,2.9111,2.9113,0,2.8358,2.8365,2.8426,2.8492,2.8543,2.8595,2.8645,2.8681,2.8699,2.8751,2.8828,2.8875,2.8968,2.9042,2.9113,2.9144,2.9132,2.9133,2.9152,2.915,2.914,2.9146,2.8931,2.9127,2.9126,2.9125,2.9124,2.9123,2.847,2.8526,2.8575,2.8644,2.8684,2.8731,2.8788,2.8814,2.8878,2.8953,2.8957,2.9041,2.9094,2.9188,2.9223,2.929,2.9268,2.9296,2.9303,2.9309,2.9315,2.9132,2.9303,2.9303,2.9303,2.9302,2.9302,0,2.8626,2.8658,2.8722,2.8792,2.8848,2.8833,2.8889,2.8936,2.901,2.9059,2.9119,2.9209,2.9282,2.932,2.9393,2.944,2.9436,2.9458,2.9454,2.9462,2.9331,2.9306,2.946,2.946,2.946,2.946,2.946,2.946,2.8714,2.8808,2.8821,2.8936,2.8967,2.9048,2.9082,2.9127,2.9167,2.9267,2.9327,2.9352,2.9398,2.9475,2.9542,2.9552,2.9579,2.9604,2.961,2.9487,2.9471,2.9455,2.9432,2.961,2.961,2.9735,2.9737,2.9737]},{"header":{"parameterUnit":"m.s-1","parameterCategory":1,"la1":30.2991,"la2":30.254,"lo1":-89.0895,"lo2":-89.0444,"dy":0.0017,"dx":0.0017,"nx":28,"ny":28,"refTime":"2024-06-09T03:00:00:Z","depth":0,"parameterNumber":3,"parameterNumberName":"V-component_of_WINDS"},"data":[0,0,0,0,0,0,0,0,0,0,0,0,0,0,0,0,0,0,0,0,0,0,0,0,0,0,0,0,0,0,0,0,0,0,0,0,0,0,0,0,0,0,0,0,0,0,0,0,0,0,0,0,0,0,0,0,0,0,1.3019,1.3021,0,1.3241,1.3243,1.3246,1.323,1.3227,1.3224,1.3221,1.345,1.3459,1.3468,0,0,0,0,0,0,0,0,0,0,0,0,0,1.2582,1.2591,1.3019,1.3021,1.3024,1.324,1.3243,1.3246,1.3231,1.3227,1.3223,1.3219,1.3447,1.3458,1.3469,0,0,0,0,0,0,0,0,0,0,0,0,0,1.2785,1.2593,1.3018,1.3042,1.3047,1.324,1.3243,1.3247,1.3232,1.3227,1.3222,1.3217,1.3443,1.3457,1.347,1.3654,0,0,1.3512,1.3518,0,0,0,0,0,0,0,0,1.2773,1.2801,1.3036,1.3041,1.3046,1.3203,1.3174,1.3384,1.3233,1.3162,1.322,1.3215,1.3372,1.3391,1.3444,1.3665,1.3674,1.3513,1.3522,1.3528,1.3531,0,0,0,0,0,0,0,1.2759,1.2791,1.3107,1.304,1.3046,1.3043,1.3066,1.3213,1.3292,1.3167,1.3167,1.3193,1.3374,1.343,1.3449,1.3678,1.3513,1.3525,1.3534,1.3539,1.406,1.4065,0,0,0,0,0,0,1.274,1.278,1.31,1.3113,1.2895,1.3054,1.308,1.3158,1.329,1.3305,1.3197,1.3192,1.3409,1.3433,1.3457,1.368,1.3527,1.354,1.3548,1.4054,1.4061,1.4067,0,0,0,0,0,0,1.273,1.2768,1.3091,1.2947,1.2987,1.3067,1.3154,1.3165,1.3221,1.3312,1.3326,1.3241,1.3406,1.3437,1.3605,1.3688,1.3547,1.3559,1.4047,1.4056,1.4064,1.4128,0,0,0,0,0,0,1.2718,1.2765,1.2836,1.2948,1.2995,1.3235,1.3159,1.3172,1.3245,1.324,1.3357,1.3372,1.3405,1.3584,1.3618,1.3704,1.357,1.404,1.4051,1.4061,1.4119,1.4138,1.4154,0,0,0,0,0,1.2702,1.2846,1.2839,1.2878,1.3085,1.3239,1.3266,1.3301,1.3252,1.3323,1.3381,1.3368,1.3673,1.3601,1.364,1.3731,1.4035,1.4048,1.406,1.4111,1.4134,1.4154,0,0,0,0,0,0,1.2742,1.2861,1.2855,1.3039,1.3129,1.3236,1.3328,1.3324,1.3431,1.3421,1.346,1.3487,1.3655,1.371,1.3628,1.3915,1.3848,1.3869,1.3873,1.3896,1.3913,1.3896,1.3581,0,0,0,0,0,1.2772,1.2887,1.2985,1.3138,1.3183,1.3248,1.3317,1.3335,1.343,1.3469,1.3539,1.3633,1.3749,1.3826,1.3938,1.4127,1.4152,1.4208,1.4226,1.4239,1.4257,1.436,1.4386,1.4108,1.4108,1.4108,0,0,1.2835,1.2915,1.2985,1.3148,1.322,1.3339,1.328,1.3409,1.3497,1.3488,1.365,1.3705,1.3812,1.399,1.4072,1.4041,1.4339,1.4255,1.4266,1.4276,1.4376,1.4402,1.4425,1.4117,1.4115,1.4114,0,0,1.3011,1.3083,1.3218,1.3291,1.34,1.3442,1.3474,1.3583,1.3618,1.3781,1.3777,1.3883,1.4083,1.4159,1.4224,1.4427,1.4419,1.4463,1.4554,1.4654,1.4676,1.4695,1.4768,1.4793,1.448,1.448,1.448,0,1.3077,1.3255,1.3288,1.3417,1.3489,1.3485,1.3622,1.3691,1.3832,1.3882,1.3844,1.4095,1.4166,1.4362,1.4411,1.4464,1.4502,1.445,1.467,1.469,1.4709,1.4778,1.4805,1.4485,1.4484,1.4484,1.4483,0,1.333,1.3453,1.3549,1.3684,1.3767,1.3899,1.3952,1.4031,1.4042,1.4088,1.4253,1.4339,1.4468,1.4516,1.4528,1.4713,1.469,1.4661,1.4594,1.4739,1.4805,1.4832,1.4491,1.449,1.4488,1.4487,0,0,1.3538,1.3688,1.3723,1.3784,1.3904,1.4,1.4132,1.4258,1.4325,1.4422,1.4533,1.4702,1.4676,1.4749,1.477,1.4858,1.5013,1.4818,1.4821,1.4851,1.5221,1.5243,1.5273,1.5007,1.5012,1.5017,1.5212,0,1.3726,1.396,1.3992,1.4199,1.4313,1.4311,1.4426,1.4512,1.4558,1.4662,1.4712,1.4831,1.4787,1.4831,1.4918,1.4975,1.5088,1.4962,1.5112,1.5117,1.5085,1.5308,1.5331,1.5512,1.5238,1.5243,1.5246,0,1.3978,1.408,1.4298,1.4401,1.4451,1.4553,1.467,1.477,1.4867,1.4894,1.4975,1.4985,1.5121,1.5048,1.5236,1.515,1.5213,1.525,1.5258,1.5274,1.519,1.533,1.557,1.5597,1.5287,1.5283,1.5281,0,1.4107,1.43,1.4455,1.4508,1.4632,1.4704,1.4759,1.4851,1.4925,1.5027,1.5075,1.5192,1.5256,1.5347,1.5388,1.533,1.5573,1.5503,1.56,1.5599,1.5652,1.5648,1.5906,1.5692,1.5691,1.5691,1.569,0,1.4315,1.4448,1.4515,1.4611,1.476,1.4796,1.4942,1.4995,1.5077,1.5182,1.5187,1.5286,1.5334,1.544,1.5473,1.5624,1.5653,1.5678,1.5686,1.5679,1.5675,1.5721,1.571,1.5698,1.5697,1.5695,1.5694,0,1.4485,1.4536,1.4705,1.4808,1.4837,1.4943,1.5031,1.5124,1.5168,1.5301,1.5335,1.5405,1.553,1.5579,1.5732,1.5754,1.5928,1.5925,1.5895,1.5897,1.5991,1.5982,1.6288,1.633,1.6087,1.609,1.6091,0,1.4614,1.4717,1.4831,1.4902,1.4959,1.5073,1.5147,1.5187,1.5264,1.5381,1.546,1.5584,1.5686,1.5886,1.595,1.6067,1.6068,1.6167,1.6085,1.6074,1.6069,1.6063,1.6073,1.6182,1.6185,1.6187,1.6188,0,1.4838,1.4858,1.4964,1.508,1.5169,1.5262,1.5353,1.541,1.5463,1.5549,1.5677,1.5756,1.5911,1.6035,1.6155,1.6212,1.621,1.6213,1.6242,1.6236,1.6214,1.6227,1.5937,1.6206,1.6204,1.6203,1.6202,1.6201,1.4992,1.5083,1.5177,1.5296,1.5368,1.5452,1.5544,1.5599,1.5706,1.5836,1.5852,1.5989,1.6082,1.6243,1.6305,1.6412,1.6386,1.6428,1.6438,1.6448,1.6455,1.6196,1.6434,1.6434,1.6433,1.6433,1.6433,0,1.5216,1.5276,1.5385,1.5511,1.5605,1.5593,1.5692,1.5771,1.5891,1.5979,1.6078,1.6225,1.6344,1.6417,1.6537,1.6609,1.6611,1.6639,1.6635,1.6648,1.6471,1.6434,1.6636,1.6636,1.6636,1.6636,1.6636,1.6636,1.5344,1.5496,1.5527,1.5715,1.5774,1.5908,1.5966,1.6044,1.6113,1.6276,1.6375,1.6422,1.6504,1.6629,1.6738,1.6757,1.6801,1.6832,1.6848,1.6682,1.6661,1.6641,1.6606,1.6841,1.6841,1.7016,1.7018,1.7019]}]]